www.pogodaiklimat.ru

Погода и климат >> Архив погоды >> Франция >> Ле-Ман


ПОГОДА в Ле-Мане

  • Прогноз погоды в Ле-Мане
  • Монитор погоды в Ле-Мане

АРХИВ ПОГОДЫ в Ле-Мане

Время (UTC), дата Ветер
(напр.,м/с)
 
Видим.   Явления Облачность Т
(С)
Тd
(С)
f
(%)
Тe
(С)
Тes
(С)
Комфортность P
(гПа)
Po
(гПа)
Тmin
(С)
Tmax
(С)
R
(мм)
R24
(мм)
S
(см)
01 9.09 ЮВ 1 20 км н/о +7.0 +4.5 84 +7 +7 1019.9 1013.5
02 9.09 штиль 0 20 км н/о +6.5 +4.7 88 +6 +6 1019.6 1013.2
03 9.09 В 1
{3}
20 км н/о +6.0 +4.0 87 +6 +6 1019.2 1012.8 0
04 9.09 Ю 1 20 км 10/10
[]
+5.7 +4.3 91 +6 +6 1018.9 1012.5
05 9.09 ЮВ 1 20 км 9/9
[]
+5.5 +4.1 91 +5 +5 1018.2 1011.8
06 9.09 ЮВ 1
{2}
20 км 9/0
[]
+6.1 +4.7 91 +6 +6 1017.7 1011.3 +5.4 +18.5 0
07 9.09 штиль 0 20 км н/о +8.2 +5.7 84 +7 +7 1017.4 1011.0
08 9.09 Ю 1 20 км 10/10 1500 м
[]
+10.3 +6.3 76 +11 +11 1017.1 1010.8
09 9.09 Ю 1
{3}
20 км 10/10 1500 м
[]
+11.8 +6.5 70 +13 +13 1017.1 1010.8 0
10 9.09 ЮЗ 1 20 км 10/10 1500 м
[]
+14.7 +6.8 59 +15 +15 1016.6 1010.4
11 9.09 ЮЗ 1 20 км 9/9 2000 м
[]
+17.5 +6.1 47 +19 +20 1015.6 1009.4
12 9.09 ЮЗ 2
{8}
20 км 8/0
[]
+18.6 +5.1 41 +19 +22 1014.8 1008.7 0
13 9.09 ЮЗ 3 19 км 9/9 1500 м
[]
+19.8 +5.4 39 +21 +22 комфорт 1014.1 1008.0
14 9.09 ЮЗ 3 20 км 9/9 1500 м
[]
+20.3 +4.7 36 +21 +22 комфорт 1013.2 1007.1
15 9.09 ЮЗ 3
{9}
20 км 10/10 1500 м
[]
+19.2 +4.5 38 +20 +20 1012.6 1006.5 0
16 9.09 ЮЗ 2 14 км дождь 10/10 1500 м
[]
+13.4 +10.7 84 +13 +13 1013.4 1007.2 2
17 9.09 В 2 20 км слаб. дождь 10/10 2000 м
[]
+13.3 +11.7 90 +13 +13 1012.7 1006.5 1
18 9.09 В 1
{4}
14 км слаб. дождь 10/10 1500 м
[]
+13.1 +11.5 90 +14 +14 1012.8 1006.6 +6.1 +20.9 3 0
19 9.09 В 1 20 км слаб. дождь 10/4 1260 м
[]
+12.8 +11.4 91 +14 +14 1012.8 1006.6 0.4
20 9.09 В 1 20 км 10/10 1500 м
[]
+12.5 +11.4 93 +12 +12 1012.8 1006.6
21 9.09 В 1
{3}
20 км морось 10/10 1000 м
[]
+12.4 +11.1 92 +12 +12 1012.6 1006.4 0.6 0
22 9.09 В 1 20 км 10/10 1470 м
[]
+12.2 +11.1 93 +13 +13 1012.6 1006.4 0.0
23 9.09 СВ 1 20 км 10/1 1300 м
[]
+12.3 +11.0 92 +12 +12 1012.6 1006.4
00 10.09 В 1
{3}
20 км 10/10 1000 м
[]
+12.1 +10.7 91 +13 +13 1013.1 1006.8 0.0 0
01 10.09 СВ 1 20 км 10/10 1500 м
[]
+12.3 +10.4 88 +12 +12 1012.8 1006.6 0.0
02 10.09 В 2 20 км 10/10 1500 м
[]
+12.1 +10.2 88 +11 +11 1013.1 1006.8
03 10.09 СВ 2
{5}
20 км 10/10 1500 м
[]
+12.4 +9.4 82 +12 +12 1013.6 1007.3 0.0 0
04 10.09 СВ 1 20 км 10/10 1500 м
[]
+12.3 +9.5 83 +12 +12 1013.9 1007.6
05 10.09 СВ 2 20 км 10/10 1500 м
[]
+12.3 +9.1 81 +12 +12 1014.6 1008.3
06 10.09 СВ 1
{5}
20 км 10/10 1500 м
[]
+12.4 +9.4 82 +12 +12 1015.7 1009.4 +12.0 +13.1 0.6 0
07 10.09 СВ 2 20 км 10/10 1500 м
[]
+12.6 +9.4 81 +12 +12 1016.5 1010.2
08 10.09 СВ 2 20 км 10/10 2000 м
[]
+13.8 +9.2 74 +14 +14 1017.2 1011.0
09 10.09 СВ 2
{6}
20 км н/о +16.2 +9.6 65 +16 +16 1017.9 1011.7 0
10 10.09 В 2 20 км н/о +18.1 +8.4 53 +19 +19 1018.8 1012.6
11 10.09 СВ 2 20 км н/о +19.6 +8.0 47 +21 +21 комфорт 1018.9 1012.8
12 10.09 СВ 2
{9}
20 км н/о +20.7 +6.6 40 +22 +22 комфорт 1019.2 1013.1 0
13 10.09 СВ 2 20 км н/о +21.8 +6.5 37 +23 +23 комфорт 1019.2 1013.1
14 10.09 СВ 2 20 км н/о +21.7 +6.4 37 +22 +22 комфорт 1019.2 1013.1
15 10.09 СВ 2
{8}
20 км н/о +22.4 +6.6 36 +23 +23 комфорт 1019.3 1013.2 0
16 10.09 С 2 20 км н/о +22.3 +6.1 35 +23 +23 комфорт 1019.2 1013.1
17 10.09 СВ 2 20 км н/о +22.1 +5.5 34 +23 +23 комфорт 1019.8 1013.7
18 10.09 С 2
{5}
20 км н/о +21.0 +6.1 38 +23 +23 комфорт 1020.4 1014.3 +12.4 +22.9 0
19 10.09 СЗ 1 20 км н/о +19.0 +7.1 46 +21 +21 комфорт 1021.2 1015.0
20 10.09 С 1 20 км н/о +17.9 +7.6 51 +19 +19 1022.0 1015.8
21 10.09 С 2
{6}
20 км н/о +17.0 +9.2 60 +17 +17 1022.7 1016.5 0
22 10.09 С 2 20 км н/о +15.8 +9.7 67 +16 +16 1023.2 1017.0
23 10.09 С 1 20 км н/о +14.5 +9.9 74 +16 +16 1023.8 1017.5
00 11.09 штиль 0
{3}
20 км н/о +13.5 +9.7 78 +13 +13 1023.9 1017.6 0
01 11.09 штиль 0 20 км н/о +10.5 +8.8 89 +10 +10 1024.3 1017.9
02 11.09 штиль 0 19 км 9/9
[]
+9.4 +8.6 95 +9 +9 1024.2 1017.8
03 11.09 штиль 0
{1}
20 км 10/0
[]
+9.8 +9.0 95 +9 +9 1024.5 1018.1 0
04 11.09 ЮВ 1 20 км 10/10
[]
+9.7 +8.8 94 +10 +10 1024.4 1018.0
05 11.09 ЮВ 1 20 км 10/10
[]
+9.7 +8.9 95 +10 +10 1024.8 1018.4
06 11.09 штиль 0
{2}
20 км 9/0
[]
+9.9 +9.1 95 +9 +9 1025.5 1019.1 +9.2 +21.0 0
07 11.09 Ю 1 20 км н/о +11.1 +9.8 92 +12 +12 1026.3 1019.9
08 11.09 ЮЗ 1 20 км н/о +13.0 +10.5 85 +14 +14 1026.6 1020.3
09 11.09 ЮЗ 1
{3}
19 км н/о +14.9 +11.5 80 +15 +15 1027.2 1020.9 0
10 11.09 ЮЗ 1 20 км н/о +18.2 +12.4 69 +20 +20 1027.2 1021.0
11 11.09 З 2 20 км н/о +19.6 +11.9 61 +22 +22 комфорт 1027.0 1020.8
12 11.09 ЮЗ 2
{8}
20 км н/о +21.2 +11.5 54 +23 +23 комфорт 1026.7 1020.6 0
13 11.09 ЮЗ 2 20 км н/о +21.9 +10.1 47 +24 +24 комфорт 1026.6 1020.5
14 11.09 З 2 20 км н/о +23.1 +7.6 37 +24 +24 комфорт 1026.4 1020.3
15 11.09 З 2
{7}
19 км н/о +23.6 +6.8 34 +24 +24 комфорт 1026.3 1020.2 0
16 11.09 З 2 20 км н/о +23.0 +8.3 39 +24 +24 комфорт 1026.5 1020.4
17 11.09 З 2 20 км н/о +23.7 +9.3 40 +25 +25 комфорт 1026.7 1020.6
18 11.09 З 1
{6}
20 км н/о +22.1 +11.2 50 +24 +24 комфорт 1026.8 1020.7 +10.0 +24.0 0
19 11.09 З 1 20 км н/о +20.1 +12.1 60 +23 +23 комфорт 1027.3 1021.1
20 11.09 З 1 20 км 8/8 1080 м
[]
+19.0 +12.5 66 +22 +22 комфорт 1028.0 1021.8
21 11.09 Ю 1
{2}
20 км н/о +17.3 +12.4 73 +19 +19 1028.6 1022.4 0
22 11.09 ЮЗ 1 20 км н/о +17.0 +13.5 80 +18 +18 1028.8 1022.6
23 11.09 ЮЗ 1 20 км н/о +15.8 +13.8 88 +17 +17 1029.3 1023.0
00 12.09 ЮЗ 1
{3}
20 км н/о +15.8 +14.0 89 +16 +16 1029.7 1023.4 0
01 12.09 ЮЗ 1 20 км н/о +14.8 +13.7 93 +16 +16 1030.0 1023.7
02 12.09 Ю 1 20 км н/о +13.7 +13.1 96 +15 +15 1030.0 1023.7
03 12.09 Ю 1
{2}
14 км н/о +13.5 +13.3 99 +14 +14 1030.0 1023.7 0
04 12.09 Ю 1 13 км н/о +13.3 +13.0 98 +14 +14 1030.0 1023.7
05 12.09 ЮЗ 1 5000 м 10/10 60 м
[]
+14.0 +13.8 99 +15 +15 1030.4 1024.1
06 12.09 ЮЗ 1
{3}
2300 м дымка 10/10 50 м
[]
+14.2 +14.0 99 +15 +15 1030.9 1024.6 +13.2 +22.1 0
07 12.09 З 1 8000 м 10/10 90 м
[]
+14.9 +14.7 99 +15 +15 1031.4 1025.1
08 12.09 З 1 10 км 10/10 90 м
[]
+15.7 +14.9 95 +16 +16 1032.0 1025.7
09 12.09 ЮЗ 1
{3}
18 км 10/10 100 м
[]
+16.8 +15.5 92 +18 +18 1032.8 1026.5 0
10 12.09 З 1 19 км 10/10 240 м
[]
+18.3 +15.5 84 +20 +20 1033.0 1026.8
11 12.09 Ю 1 20 км 10/10 450 м
[]
+19.7 +16.0 79 +23 +23 комфорт 1032.7 1026.5
12 12.09 ЮЗ 2
{5}
20 км 10/10 300 м
[]
+21.1 +16.1 73 +24 +24 комфорт 1032.6 1026.4 0
13 12.09 Ю 1 20 км 9/9 700 м
[]
+23.2 +16.0 64 +28 +29 душно 1032.3 1026.2
14 12.09 ЮЗ 1 20 км 10/10 840 м
[]
+23.3 +15.9 63 +28 +28 душно 1031.8 1025.7
15 12.09 З 1
{5}
20 км 10/10 600 м
[]
+23.9 +15.9 61 +27 +27 жарко 1031.5 1025.4 0
16 12.09 З 2 20 км 10/10 900 м
[]
+23.3 +15.6 62 +28 +28 душно 1031.5 1025.4
17 12.09 СЗ 1 20 км 10/10 930 м
[]
+22.9 +15.5 63 +27 +27 душно 1031.6 1025.5
18 12.09 С 2
{3}
20 км н/о +22.3 +15.4 65 +26 +26 жарко 1031.4 1025.3 +14.3 +24.5 0
19 12.09 СВ 1 20 км н/о +20.2 +14.6 70 +24 +24 комфорт 1031.8 1025.6
20 12.09 штиль 0 20 км н/о +18.2 +15.3 83 +18 +18 1032.1 1025.9
21 12.09 штиль 0
{1}
20 км н/о +16.3 +15.0 92 +16 +16 1032.3 1026.0 0
22 12.09 С 1 20 км н/о +16.3 +14.3 88 +18 +18 1032.6 1026.3
23 12.09 С 1 20 км н/о +15.1 +14.1 94 +16 +16 1032.4 1026.1
00 13.09 штиль 0
{2}
20 км н/о +14.0 +13.0 94 +14 +14 1032.3 1026.0 0
01 13.09 В 1 20 км н/о +12.7 +11.9 95 +13 +13 1032.3 1025.9
02 13.09 штиль 0 20 км н/о +12.8 +12.2 96 +12 +12 1032.5 1026.1
03 13.09 штиль 0
{1}
20 км ?/? +12.0 +11.5 97 +11 +11 1032.5 1026.1 0
04 13.09 С 1 20 км н/о +11.9 +11.6 98 +12 +12 1032.6 1026.2 0.2
05 13.09 С 1 20 км н/о +12.5 +12.3 99 +13 +13 1032.7 1026.3
06 13.09 ЮВ 1
{2}
12 км н/о +11.3 +11.0 98 +12 +12 1033.1 1026.7 +11.1 +22.2 0.2 0
07 13.09 В 1 12 км ?/? +12.4 +12.4 100 +13 +13 1033.6 1027.2
08 13.09 СВ 2 20 км 8/8 1140 м
[]
+16.8 +14.8 88 +17 +18 1033.8 1027.5
09 13.09 СВ 2
{7}
20 км н/о +19.1 +15.0 77 +21 +21 комфорт 1033.7 1027.5 0
10 13.09 С 2 20 км н/о +21.0 +14.9 68 +25 +25 комфорт 1033.3 1027.1
11 13.09 С 1 20 км н/о +23.1 +15.4 62 +27 +27 душно 1032.5 1026.4
12 13.09 С 2
{6}
20 км н/о +24.1 +15.3 58 +27 +27 жарко 1031.9 1025.8 0
13 13.09 С 1 20 км н/о +24.9 +15.2 55 +28 +28 жарко 1031.7 1025.6
14 13.09 СВ 2 20 км н/о +26.0 +15.1 51 +29 +29 душно 1031.3 1025.2
15 13.09 С 2
{7}
20 км н/о +26.2 +14.6 49 +29 +29 жарко 1030.7 1024.6 0
16 13.09 С 3 20 км н/о +26.0 +14.5 49 +28 +28 жарко 1030.4 1024.3
17 13.09 СВ 3 20 км н/о +25.6 +13.8 48 +28 +28 жарко 1030.0 1023.9
18 13.09 СВ 3
{8}
20 км н/о +24.2 +14.6 55 +27 +27 жарко 1030.0 1023.9 +11.3 +26.6 0
19 13.09 СВ 2 20 км н/о +22.4 +14.3 60 +26 +26 жарко 1030.6 1024.5
20 13.09 СВ 2 20 км н/о +20.9 +14.1 65 +25 +25 комфорт 1031.0 1024.8
21 13.09 СВ 2
{8}
20 км н/о +20.1 +14.0 68 +23 +23 комфорт 1031.2 1025.0 0
22 13.09 СВ 2 20 км н/о +19.2 +14.2 73 +21 +21 комфорт 1031.0 1024.8
23 13.09 СВ 2 20 км н/о +18.6 +14.5 77 +20 +20 1030.8 1024.6
00 14.09 СВ 2
{7}
20 км н/о +17.8 +14.7 82 +19 +19 1030.9 1024.7 0
01 14.09 СВ 1 20 км н/о +16.5 +14.3 87 +17 +17 1031.2 1024.9
02 14.09 СВ 2 20 км н/о +16.7 +14.5 87 +17 +17 1030.8 1024.5
03 14.09 СВ 2
{6}
20 км н/о +16.4 +14.6 89 +17 +17 1030.5 1024.2 0
04 14.09 СВ 2 20 км н/о +15.8 +14.5 92 +16 +16 1030.2 1023.9
05 14.09 СВ 2 17 км н/о +15.4 +14.3 93 +15 +15 1030.0 1023.7
06 14.09 СВ 2
{6}
18 км н/о +15.4 +13.9 91 +15 +15 1030.3 1024.0 +15.3 +24.2 0
07 14.09 СВ 2 19 км н/о +16.4 +14.1 86 +17 +17 1030.6 1024.3
08 14.09 СВ 2 19 км н/о +17.6 +14.1 80 +18 +18 1030.4 1024.2
09 14.09 В 2
{7}
20 км н/о +20.0 +14.6 71 +23 +23 комфорт 1029.8 1023.6 0
10 14.09 СВ 2 20 км н/о +22.3 +14.9 63 +26 +26 жарко 1029.3 1023.2
11 14.09 СВ 2 20 км н/о +24.1 +14.5 55 +27 +27 жарко 1028.7 1022.6
12 14.09 В 2
{8}
20 км н/о +26.1 +14.5 49 +29 +29 жарко 1028.0 1022.0 0
13 14.09 СВ 2 20 км н/о +26.4 +14.5 48 +29 +29 жарко 1027.4 1021.4
14 14.09 СВ 2 20 км н/о +27.1 +14.5 46 +30 +30 душно 1027.0 1021.0
15 14.09 СВ 2
{9}
20 км н/о +28.1 +14.3 43 +30 +30 жарко 1026.2 1020.2 0
16 14.09 В 2 20 км н/о +27.9 +13.8 42 +30 +30 жарко 1025.8 1019.8
17 14.09 В 2 20 км н/о +27.3 +13.6 43 +29 +29 жарко 1025.7 1019.7
18 14.09 СВ 1
{5}
20 км н/о +26.0 +14.1 48 +28 +28 жарко 1025.7 1019.7 +15.3 +28.1 0
19 14.09 СВ 1 20 км н/о +23.3 +13.7 55 +27 +27 душно 1026.2 1020.1
20 14.09 СВ 2 20 км н/о +22.2 +13.8 59 +25 +25 комфорт 1026.3 1020.2
21 14.09 СВ 1
{3}
20 км н/о +20.1 +13.5 66 +24 +24 комфорт 1026.5 1020.3 0
22 14.09 СВ 1 20 км н/о +19.8 +13.3 66 +23 +23 комфорт 1026.4 1020.2
23 14.09 СВ 1 20 км н/о +18.7 +12.9 69 +21 +21 комфорт 1026.0 1019.8
00 15.09 СВ 1
{3}
20 км н/о +17.9 +12.8 72 +20 +20 1025.9 1019.7 0
01 15.09 С 1 20 км н/о +16.6 +12.7 78 +18 +18 1025.5 1019.3
02 15.09 С 1 20 км н/о +16.2 +12.9 81 +17 +17 1025.6 1019.4
03 15.09 СВ 1
{4}
20 км н/о +15.6 +12.2 80 +17 +17 1025.4 1019.2 0
04 15.09 штиль 0 20 км н/о +13.9 +11.9 88 +13 +13 1024.9 1018.6
05 15.09 С 1 20 км н/о +14.5 +12.2 86 +15 +15 1025.0 1018.7
06 15.09 штиль 0
{3}
20 км н/о +13.6 +11.3 86 +13 +13 1025.4 1019.1 +13.1 +26.0 0
07 15.09 В 1 20 км н/о +15.9 +12.5 80 +17 +17 1025.3 1019.1
08 15.09 В 1 20 км н/о +19.7 +12.7 64 +23 +23 комфорт 1025.6 1019.4
09 15.09 С 1
{3}
20 км н/о +22.1 +12.6 55 +25 +25 комфорт 1025.5 1019.4 0
10 15.09 СВ 2 20 км н/о +24.1 +12.7 49 +26 +26 жарко 1025.5 1019.4
11 15.09 В 2 20 км н/о +26.0 +13.1 45 +28 +28 жарко 1024.8 1018.8
12 15.09 СВ 1
{7}
20 км н/о +27.2 +11.6 38 +28 +28 жарко 1024.0 1018.0 0
13 15.09 С 1 20 км н/о +27.8 +12.2 38 +29 +29 жарко 1023.3 1017.3
14 15.09 СВ 2 20 км н/о +28.5 +11.5 35 +29 +29 жарко 1022.6 1016.6
15 15.09 СВ 2
{6}
20 км н/о +28.7 +10.8 33 +29 +29 жарко 1022.2 1016.2 0
17 15.09 СВ 1 20 км н/о +28.6 +9.8 31 +29 +29 жарко 1021.4 1015.4
18 15.09 СВ 1
{4}
20 км н/о +26.6 +10.3 36 +27 +27 жарко 1021.4 1015.4 +13.5 +29.5 0
19 15.09 С 1 20 км н/о +24.2 +10.5 42 +25 +25 комфорт 1021.8 1015.7
20 15.09 С 2 20 км н/о +24.0 +11.7 46 +26 +26 жарко 1022.2 1016.1
21 15.09 С 1
{6}
20 км н/о +21.7 +12.8 57 +24 +24 комфорт 1022.5 1016.4 0
22 15.09 СВ 1 20 км н/о +20.1 +13.8 67 +23 +23 комфорт 1022.6 1016.5
23 15.09 С 1 20 км н/о +19.4 +13.8 70 +22 +22 комфорт 1022.7 1016.6

 

Местоположение метеостанции Ле-Ман (Франция): широта 47.93 долгота 0.20 высота над уровнем моря 52 м.

В архиве по умолчанию представлена погода в Ле-Мане за последнюю неделю. Архивные данные за месяц целиком и за предыдущие месяцы, начиная с января 2011 года, Вы можете получить, выбрав интересующий диапазон дат из раскрывающегося списка и нажав кнопку "Ввод!".


*Определитесь, кто Вы:
робот инопланетянин человек

Внимание! Время в таблицах - всемирное. Для получения местного времени необходимо прибавить поправку, которая равна 1 ч.

Смотрите также архив погоды в соседних городах и на ближайших метеорологических станциях:

Погода в Алансоне (Франция) (56 км)
Погода в Марсе (Франция) (57 км)
Погода в Туре (Франция) (67 км)
Погода в Лавале (Франция) (70 км)
Погода в Бокузе (Франция) (78 км)
Погода в Блуа (Франция) (81 км)
Погода в Шатодёне (Франция) (89 км)
Погода в Шартре (Франция) (114 км)
Погода в Тусю-ле-Нобле (Франция) (115 км)
Погода в Орлеане (Франция) (118 км)

Пояснения к столбцам:

Ветер - указаны скорость ветра в м/с - средняя за 10 мин, порывы в срок и между сроками (в фигурных скобках) и направление, откуда дует ветер: С - северный, СВ - северо-восточный, В - восточный, ЮВ - юго-восточный, Ю - южный, ЮЗ - юго-западный, З - западный, СЗ - северо-западный.
Видимость - горизонтальная дальность видимости в метрах или километрах. При видимости от 1 до 10 км при отсутствии осадков обычно наблюдается дымка, при ухудшении видимости до 1 км и менее - туман. В сухую погоду видимость может ухудшаться дымом, пылью или мглою.
Явления - указаны атмосферные явления, наблюдавшиеся в срок или в последний час перед сроком; фигурными скобками обозначены явления, наблюдавшиеся между сроками (за 1-3 часа до срока); квадратными скобками обозначены град или гололедные отложения с указанием их диаметра в мм.
Облачность - указаны через наклонную черту общая и нижняя облачность в баллах и высота нижней границы облаков в метрах; квадратными скобками обозначены формы облаков: Ci - перистые, Cs - перисто-слоистые, Cc - перисто-кучевые, Ac - высококучевые, As - высокослоистые, Sc - слоисто-кучевые, Ns - слоисто-дождевые, Cu - кучевые, Cb - кучево-дождевые. Подробнее классификацию облаков см. в Атласе облаков (PDF).
T - Температура воздуха - температура, измеренная на высоте 2 м над землей.
Td - Температура точки росы - температура, при понижении до которой содержащийся в воздухе водяной пар достигнет насыщения.
f - Относительная влажность воздуха - влажноcть воздуха, измеренная на высоте 2 м над землей.
Te - Эффективная температура - температура, которую ощущает одетый по сезону человек в тени. Характеристика душности погоды. При расчете учитывается влияние влажности воздуха и скорости ветра на теплоощущения человека.
Tes - Эффективная температура на солнце - температура, которую ощущает человек, с поправкой на солнечный нагрев. Характеристика знойности погоды. Зависит от высоты солнца над горизонтом, облачности и скорости ветра. Ночью, в пасмурную погоду, а также при ветре 12 м/с и более поправка равна нулю.
P - Атмосферное давление - приведенное к уровню моря атмосферное давление.
Po - Атмосферное давление - измеренное на уровне метеостанции атмосферное давление.
Tmin - Минимальная температура - минимум температуры воздуха на высоте 2 м над землей.
Tmax - Максимальная температура - максимум температуры воздуха на высоте 2 м над землей.
R - Количество осадков - Количество выпавших осадков за период времени, мм. При наведении курсора мыши на число - период времени, за который выпало указанное количество осадков.
R24 - Количество осадков - Количество выпавших осадков за 24 часа, мм.
S - Снежный покров - Высота снежного покрова, см. При наведении курсора мыши на число - состояние снежного покрова и степень покрытия местности в баллах.